AirNav   Everest Fuels
 
 1395 users online  

KOQN Brandywine Regional Airport
West Chester, Pennsylvania, USA

GOING TO WEST CHESTER?


FAA INFORMATION EFFECTIVE 16 JULY 2020

Location

FAA Identifier: OQN
Lat/Long: 39-59-24.4220N 075-34-54.8470W
39-59.407033N 075-34.914117W
39.9901172,-75.5819019
(estimated)
Elevation: 464.6 ft. / 142 m (estimated)
Variation: 12W (2000)
From city: 3 miles NE of WEST CHESTER, PA
Time zone: UTC -4 (UTC -5 during Standard Time)
Zip code: 19380

Airport Operations

Airport use: Open to the public
Activation date: 04/1946
Control tower: no
ARTCC: NEW YORK CENTER
FSS: WILLIAMSPORT FLIGHT SERVICE STATION
NOTAMs facility: IPT (NOTAM-D service available)
Attendance: 0800-1700
Wind indicator: lighted
Segmented circle: no
Lights: SS-SR
Beacon: white-green (lighted land airport)
Operates sunset to sunrise.
Landing fee: yes, LANDING FEE COML OPS ONLY.

Airport Communications

CTAF/UNICOM: 123.075
WX AWOS-3T: 121.4 ((610) 692-6190)
PHILADELPHIA APPROACH: 124.35
PHILADELPHIA DEPARTURE: 124.35
CLEARANCE DELIVERY: 125.6
WX AWOS-3 at MQS (13 nm W): 126.25 (610-384-6132)
WX ASOS at PTW (15 nm N): 119.425 (610-495-0823)
WX AWOS-3 at LOM (17 nm NE): 118.925 (215-646-1068)
WX ASOS at PHL (17 nm SE): PHONE 215-492-9617
WX ASOS at ILG (19 nm S): PHONE 302-328-1536
  • CLEARANCE DELIVERY PHILADELPHIA APCH TF 800-354-9884.

Nearby radio navigation aids

VOR radial/distance  VOR name  Freq  Var
MXEr052/6.0MODENA VORTAC113.2009W
PTWr193/14.0POTTSTOWN VORTAC116.5009W
DQOr014/18.8DUPONT VORTAC114.0010W
OODr339/24.8WOODSTOWN VORTAC112.8010W
LRPr112/33.5LANCASTER VOR/DME117.3009W
ARDr253/34.7YARDLEY VOR/DME108.2010W
ETXr181/35.8EAST TEXAS VOR/DME110.2009W
VCNr324/39.3CEDAR LAKE VOR/DME115.2010W

 
NDB name  Hdg/Dist  Freq  Var  ID
AMBLER251/15.927512WING .. -. --.

Airport Services

Fuel available: 100LL JET-A
Parking: tiedowns
Airframe service: MINOR
Powerplant service: MAJOR
Bottled oxygen: NONE
Bulk oxygen: NONE

Runway Information

Runway 9/27

Dimensions: 3347 x 50 ft. / 1020 x 15 m
Surface: asphalt, in good condition
Weight bearing capacity: 
Single wheel: 10.0
Runway edge lights: low intensity
RUNWAY 9  RUNWAY 27
Latitude: 39-59.342877N39-59.471165N
Longitude: 075-35.262638W075-34.565580W
Elevation: 453.3 ft.460.6 ft.
Traffic pattern: rightleft
Runway heading: 089 magnetic, 077 true269 magnetic, 257 true
Displaced threshold: 125 ft.249 ft.
Markings: nonprecision, in good conditionnonprecision, in good condition
Visual slope indicator: 2-light PAPI on left (4.20 degrees glide path)
PAPI OPS CONS.
2-light PAPI on left (3.00 degrees glide path)
PAPI OPS CONS.
Touchdown point: yes, no lightsyes, no lights
Obstructions: 7 ft. trees, 243 ft. from runway, 100 ft. left and right of centerline, 7:1 slope to clear
APCH RATIO 61:1 TO DSPLCD THLD.
17 ft. tree, 227 ft. from runway, 244 ft. right of centerline, 1:1 slope to clear
ROAD TRAVERSING THE 200 FT PRIMARY SFC AREA BYD EOR; ROAD RISES TO +13 FT AT A POINT 14 FT FROM EOR 265 FT R.

Airport Ownership and Management from official FAA records

Ownership: Privately-owned
Owner: BRANDYWINE REGIONAL AIRPORT, INC
1205 WARD AVE
WEST CHESTER, PA 19380
Phone 610-692-6100
Manager: JOHN KASSAB
1205 WARD AVE
WEST CHESTER, PA 19380
Phone 610-692-6100

Airport Operational Statistics

Aircraft based on the field: 118
Single engine airplanes: 95
Multi engine airplanes: 10
Jet airplanes: 2
Helicopters: 9
Gliders airplanes: 1
Ultralights: 1
    
Aircraft operations: avg 119/day *
58% local general aviation
39% transient general aviation
2% air taxi
<1% military
* for 12-month period ending 16 October 2018

Additional Remarks

A30A-27 CALM WIND RWY.
TFC DEP RWY 27 TURN R 10 DEG UNTIL REACHING 1200 FT MSL TO AVIOD MANSION L & HOMES R.
BIRDS & DEER ON & INVOF ARPT.
FOR SVC AFT HRS CTC 610-842-3804.
FULL LENGTH PARALLEL TWY S OF RWY.
FOR CD CTC PHILADELPHIA APCH AT 800-354-9884.

Instrument Procedures

NOTE: All procedures below are presented as PDF files. If you need a reader for these files, you should download the free Adobe Reader.

NOT FOR NAVIGATION. Please procure official charts for flight.
FAA instrument procedures published for use from 16 July 2020 at 0901Z to 13 August 2020 at 0900Z.

 
IAPs - Instrument Approach Procedures
RNAV (GPS) RWY 09   download (219KB)
RNAV (GPS) RWY 27   download (235KB)
VOR-A   download (169KB)
NOTE: Special Take-Off Minimums/Departure Procedures apply   download (335KB)

Other nearby airports with instrument procedures:

N57 - New Garden Airport (13 nm SW)
KMQS - Chester County G O Carlson Airport (13 nm W)
N10 - Perkiomen Valley Airport (15 nm NE)
KPTW - Heritage Field Airport (15 nm N)
N47 - Pottstown Municipal Airport (17 nm N)
KLOM - Wings Field Airport (17 nm NE)
KPHL - Philadelphia International Airport (17 nm SE)
7N7 - Spitfire Aerodrome (17 nm SE)
KILG - New Castle Airport (19 nm S)
 
Loc | Ops | Rwys | IFR | FBO | Links
Com | Nav | Svcs | Stats | Notes
Area around KOQN (Brandywine Regional Airport)
 
Road maps at: MapQuest Bing Google
 
Aerial photo
WARNING: Photo may not be current or correct
Aerial photo of KOQN (Brandywine Regional Airport)
Photo courtesy of FlyinPhilsPhotos.com
Taken in 2009
looking east.

Do you have a better or more recent aerial photo of Brandywine Regional Airport that you would like to share? If so, please send us your photo.

 
Sectional chart

 
Airport distance calculator
Flying to Brandywine Regional Airport? Find the distance to fly.

From to KOQN

Sunrise and sunset
Times for 07-Aug-2020
 Local
(UTC-4)
 Zulu
(UTC)
Morning civil twilight05:3909:39
Sunrise06:0810:08
Sunset20:0800:08
Evening civil twilight20:3700:37

Current date and time
Zulu (UTC)  07-Aug-2020 17:39:12
Local (UTC-4)  07-Aug-2020 13:39:12
 
METAR
KOQN 071715Z AUTO 08005KT 10SM OVC018 25/20 A3012 RMK AO2 LTG DSNT W AND NW
KMQS 
13nm W 
071715Z AUTO 09006KT 10SM BKN009 OVC014 23/21 A3014 RMK AO2
KPTW 
15nm N 
071654Z AUTO 05004KT 8SM OVC017 23/19 A3014 RMK AO2 SLP203 T02280194 $
KLOM 
17nm NE 
071715Z AUTO 08005KT 10SM OVC020 24/21 A3013 RMK AO2 T02440207
KPHL 
18nm SE 
071703Z 00000KT 10SM SCT023 BKN031 22/21 A3011 RMK AO2 T02220206
KILG 
19nm S 
071718Z 05007KT 10SM SCT021 27/21 A3010 RMK AO2 T02720206
TAF
KPHL 
18nm SE 
071438Z 0715/0818 06005KT 4SM BR OVC007 FM071600 07007KT P6SM BKN015 FM071900 07007KT P6SM BKN040 FM072100 09006KT P6SM VCTS SCT025CB BKN040 TEMPO 0722/0802 3SM TSRA BKN025CB FM080300 VRB02KT 5SM BR FEW004 BKN025 FM080600 00000KT 2SM BR SCT004 BKN008 FM081300 01004KT P6SM BKN025
KILG 
19nm S 
071136Z 0712/0812 06005KT P6SM VCSH SCT006 BKN015 TEMPO 0712/0714 5SM -SHRA BKN006 FM071600 07006KT P6SM BKN040 FM072200 07004KT P6SM VCTS SCT025CB BKN040 TEMPO 0723/0802 3SM TSRA BKN025CB FM080400 VRB02KT 5SM BR FEW003 BKN020 FM080600 VRB02KT 2SM BR SCT003 BKN008
NOTAMs
Click for the latest NOTAMs
NOTAMs are issued by the DoD/FAA and will open in a separate window not controlled by AirNav.

 

 
 

FBO, Fuel Providers, and Aircraft Ground Support

  
 Business Name 
 
 Contact 
 
 Services / Description 
 
Fuel Prices
 
Comments
  
New Brandywine Aero 610-692-6100
no information available

If you are affiliated with New Brandywine Aero and would like to show here your services, contact info, web link, logo, and more, click here
100LL Jet A
FS $4.98 $3.99 
 Updated 29-Jul-2020
 
   1 read write
FS=Full service
Update Fuel Prices
 

Would you like to see your business listed on this page?

 If your business provides an interesting product or service to pilots, flight crews, aircraft, or users of the Brandywine Regional Airport, you should consider listing it here.  To start the listing process, click on the button below
 
Add a business
 

Other Pages about Brandywine Regional Airport

koqn.net
 
Update a link
 
Copyright © AirNav, LLC. All rights reserved. Privacy Policy  Contact